Total_Precipitation_Accumulation
0.05 0.09 0.20 0.14 0.11 0.11 0.10 0.10 0.12 0.14 0.17 0.19 0.20 0.22 0.22 0.21 0.19 0.18 0.17 0.20 0.28 0.36 0.43 0.46 0.43 0.37 0.33 0.26 0.15 0.06 0.04 0.03 0.04 0.03 0.04 0.06 0.08 0.08 0.07 0.07 0.07 0.08 0.12
0.04 0.08 0.19 0.15 0.14 0.13 0.14 0.13 0.12 0.13 0.16 0.19 0.23 0.24 0.24 0.22 0.22 0.17 0.18 0.23 0.29 0.32 0.35 0.37 0.29 0.23 0.21 0.14 0.06 0.03 0.02 0.02 0.02 0.01 0.01 0.02 0.04 0.07 0.07 0.06 0.06 0.08 0.11
0.06 0.11 0.17 0.16 0.15 0.16 0.16 0.13 0.10 0.12 0.16 0.21 0.25 0.24 0.25 0.24 0.19 0.19 0.23 0.24 0.27 0.29 0.26 0.23 0.14 0.10 0.07 0.04 0.03 0.03 0.03 0.02 0.01 0.01 0.02 0.03 0.04 0.06 0.06 0.06 0.08 0.11 0.12
0.08 0.14 0.16 0.19 0.19 0.18 0.16 0.14 0.13 0.13 0.18 0.23 0.26 0.27 0.28 0.25 0.18 0.21 0.24 0.22 0.23 0.23 0.15 0.12 0.08 0.06 0.04 0.02 0.02 0.02 0.02 0.02 0.01 0.02 0.04 0.05 0.05 0.10 0.11 0.11 0.12 0.12 0.12
0.11 0.16 0.20 0.23 0.25 0.24 0.19 0.17 0.16 0.16 0.20 0.25 0.27 0.29 0.30 0.29 0.25 0.25 0.23 0.20 0.18 0.16 0.10 0.08 0.06 0.05 0.03 0.02 0.02 0.02 0.02 0.01 0.01 0.02 0.04 0.05 0.07 0.14 0.15 0.12 0.12 0.12 0.13
0.17 0.23 0.29 0.30 0.31 0.30 0.26 0.22 0.21 0.21 0.23 0.26 0.29 0.30 0.32 0.34 0.34 0.31 0.23 0.17 0.12 0.10 0.08 0.07 0.04 0.03 0.03 0.02 0.01 0.01 0.01 0.01 0.01 0.02 0.03 0.04 0.08 0.17 0.17 0.13 0.14 0.16 0.18
0.22 0.31 0.37 0.39 0.40 0.38 0.33 0.29 0.27 0.28 0.29 0.27 0.27 0.31 0.37 0.37 0.37 0.34 0.24 0.14 0.09 0.08 0.07 0.07 0.05 0.02 0.02 0.02 0.01 0.01 0.00 0.00 0.01 0.02 0.03 0.04 0.10 0.20 0.19 0.16 0.17 0.18 0.18
0.29 0.33 0.42 0.45 0.42 0.41 0.41 0.37 0.33 0.34 0.34 0.33 0.31 0.36 0.43 0.41 0.33 0.30 0.22 0.13 0.09 0.07 0.06 0.06 0.06 0.04 0.03 0.03 0.02 0.01 0.00 0.00 0.01 0.03 0.03 0.05 0.10 0.18 0.16 0.13 0.13 0.14 0.15
0.46 0.48 0.49 0.49 0.45 0.42 0.37 0.34 0.35 0.38 0.36 0.34 0.35 0.38 0.40 0.41 0.31 0.25 0.17 0.12 0.09 0.08 0.08 0.07 0.06 0.05 0.05 0.04 0.03 0.01 0.00 0.00 0.01 0.02 0.02 0.04 0.08 0.12 0.11 0.10 0.09 0.10 0.11
0.75 0.68 0.61 0.59 0.53 0.46 0.39 0.34 0.34 0.35 0.34 0.34 0.33 0.28 0.28 0.26 0.25 0.23 0.14 0.11 0.10 0.10 0.09 0.08 0.06 0.05 0.04 0.02 0.01 0.01 0.00 0.00 0.00 0.01 0.01 0.02 0.04 0.06 0.06 0.07 0.07 0.08 0.10
1.04 0.90 0.78 0.73 0.67 0.57 0.50 0.41 0.39 0.36 0.32 0.29 0.28 0.24 0.22 0.25 0.23 0.19 0.10 0.10 0.09 0.09 0.08 0.07 0.06 0.05 0.02 0.01 0.01 0.00 0.00 0.00 0.00 0.00 0.01 0.01 0.02 0.04 0.06 0.07 0.07 0.08 0.08
1.15 1.03 0.92 0.85 0.78 0.65 0.55 0.48 0.43 0.39 0.33 0.26 0.23 0.24 0.22 0.23 0.23 0.18 0.12 0.09 0.10 0.08 0.08 0.07 0.05 0.04 0.02 0.01 0.00 0.00 0.00 0.00 0.00 0.00 0.00 0.00 0.01 0.04 0.06 0.07 0.06 0.06 0.07
1.27 1.23 1.09 0.98 0.89 0.77 0.64 0.55 0.49 0.42 0.38 0.31 0.25 0.23 0.21 0.23 0.25 0.22 0.18 0.13 0.12 0.08 0.07 0.07 0.05 0.02 0.01 0.01 0.00 0.00 0.00 0.00 0.00 0.00 0.00 0.00 0.01 0.03 0.05 0.06 0.07 0.07 0.08
1.32 1.35 1.20 1.09 0.97 0.87 0.73 0.60 0.54 0.46 0.40 0.33 0.27 0.23 0.23 0.24 0.22 0.19 0.17 0.14 0.13 0.11 0.09 0.07 0.04 0.02 0.02 0.01 0.01 0.00 0.00 0.00 0.00 0.00 0.00 0.00 0.01 0.02 0.05 0.06 0.08 0.09 0.11
1.31 1.32 1.32 1.18 1.07 0.90 0.81 0.72 0.59 0.48 0.39 0.35 0.33 0.27 0.22 0.21 0.20 0.19 0.16 0.15 0.13 0.11 0.11 0.09 0.07 0.05 0.03 0.02 0.01 0.01 0.00 0.00 0.00 0.00 0.00 0.00 0.00 0.01 0.02 0.05 0.09 0.13 0.17
1.24 1.26 1.30 1.31 1.24 1.06 0.85 0.76 0.68 0.53 0.45 0.42 0.39 0.31 0.26 0.23 0.22 0.21 0.18 0.16 0.13 0.10 0.09 0.09 0.07 0.06 0.05 0.03 0.02 0.01 0.01 0.01 0.00 0.00 0.00 0.00 0.00 0.00 0.01 0.04 0.10 0.16 0.22
1.26 1.23 1.30 1.32 1.38 1.25 1.03 0.88 0.81 0.66 0.54 0.46 0.39 0.39 0.37 0.32 0.27 0.23 0.22 0.18 0.14 0.12 0.11 0.10 0.10 0.08 0.07 0.05 0.03 0.02 0.01 0.01 0.01 0.00 0.00 0.01 0.01 0.00 0.01 0.04 0.09 0.15 0.23
1.41 1.27 1.31 1.33 1.43 1.42 1.24 1.05 0.91 0.81 0.68 0.53 0.42 0.42 0.44 0.40 0.36 0.32 0.30 0.26 0.23 0.19 0.16 0.14 0.12 0.12 0.09 0.08 0.07 0.06 0.04 0.02 0.02 0.01 0.01 0.01 0.01 0.01 0.01 0.02 0.04 0.10 0.17
1.48 1.39 1.35 1.32 1.38 1.46 1.45 1.32 1.15 1.00 0.83 0.70 0.56 0.48 0.48 0.46 0.43 0.37 0.33 0.34 0.35 0.31 0.25 0.22 0.16 0.15 0.13 0.12 0.11 0.08 0.06 0.04 0.03 0.02 0.02 0.02 0.02 0.02 0.02 0.02 0.02 0.04 0.08
1.59 1.48 1.42 1.40 1.43 1.56 1.65 1.63 1.44 1.25 1.07 0.91 0.77 0.66 0.61 0.56 0.53 0.48 0.41 0.41 0.41 0.39 0.33 0.29 0.25 0.22 0.17 0.16 0.14 0.09 0.07 0.05 0.04 0.03 0.03 0.03 0.03 0.03 0.03 0.03 0.04 0.03 0.04
1.62 1.57 1.42 1.46 1.47 1.58 1.70 1.68 1.55 1.33 1.27 1.15 1.01 0.92 0.81 0.72 0.66 0.64 0.57 0.54 0.54 0.49 0.44 0.41 0.39 0.33 0.27 0.25 0.22 0.14 0.08 0.05 0.04 0.04 0.03 0.03 0.02 0.03 0.04 0.04 0.05 0.06 0.07
1.43 1.58 1.49 1.49 1.55 1.50 1.55 1.74 1.84 1.74 1.57 1.43 1.27 1.12 1.01 0.90 0.82 0.76 0.71 0.68 0.62 0.58 0.55 0.51 0.48 0.43 0.39 0.36 0.32 0.27 0.16 0.08 0.05 0.05 0.04 0.04 0.04 0.05 0.05 0.06 0.07 0.08 0.10
1.34 1.54 1.56 1.56 1.63 1.56 1.63 1.97 2.18 2.17 1.89 1.66 1.47 1.29 1.17 1.11 1.05 0.95 0.84 0.79 0.73 0.67 0.58 0.54 0.55 0.55 0.50 0.45 0.41 0.41 0.31 0.17 0.11 0.07 0.06 0.07 0.07 0.07 0.08 0.09 0.09 0.10 0.11
1.28 1.45 1.52 1.64 1.71 1.73 1.76 1.92 1.97 1.88 1.71 1.52 1.50 1.45 1.37 1.29 1.19 1.12 1.05 0.95 0.87 0.80 0.69 0.65 0.64 0.64 0.65 0.59 0.51 0.45 0.40 0.32 0.30 0.19 0.12 0.11 0.13 0.12 0.12 0.12 0.12 0.12 0.12
1.19 1.39 1.42 1.51 1.60 1.68 1.67 1.76 1.94 1.82 1.65 1.55 1.53 1.48 1.40 1.38 1.30 1.21 1.14 1.11 1.04 0.97 0.91 0.86 0.79 0.75 0.72 0.68 0.64 0.59 0.56 0.48 0.42 0.40 0.28 0.19 0.18 0.17 0.16 0.15 0.14 0.13 0.13
1.00 1.26 1.36 1.47 1.54 1.62 1.60 1.63 1.80 1.73 1.55 1.40 1.35 1.36 1.29 1.26 1.20 1.14 1.09 1.07 1.04 1.00 0.97 0.93 0.90 0.85 0.80 0.75 0.70 0.66 0.65 0.60 0.52 0.52 0.48 0.33 0.28 0.24 0.24 0.24 0.22 0.21 0.21